Location: Hamayl? Da??
(36.7028°N, 30.1716°E)
Time: 00:58:02
(UTC+00:00)

Okean 1-7 Rocket - Pass Details

Date: 04 August 2024
Orbit: 613 x 645 km, 82.5° (Epoch: 12 September)

Event Time Altitude Azimuth Distance (km) Brightness Sun altitude
Exits shadow 19:35:58 71° 341° (NNW) 661 3.7 -25.8°
Drops below altitude 10° 19:39:59 10° 5° (N) 2,004 6.7 -26.3°
Sets 19:42:14 0° 6° (N) 2,921 7.6 -26.6°
